WX4MMM Weather Reports


Display with metric or nautical units.
time (UTC)temp
F
wind
direction
speed
MPH
gust
MPH
rain 1hr
in
rain 24hr
in
rain mn
in
humidity
%
barometer
mb
20260507122503 65 74 0.0 1.0 0.01 0.59 0.30 97 1009.6
20260507122004 65 98 0.0 0.0 0.01 0.58 0.30 97 1009.5
20260507121504 65 97 0.0 1.0 0.01 0.58 0.30 96 1009.5
20260507121004 65 130 0.0 1.0 0.01 0.58 0.30 97 1009.6
20260507120004 65 79 0.0 0.0 0.01 0.58 0.30 96 1009.9
20260507115504 65 79 0.0 1.0 0.01 0.58 0.30 97 1009.8
20260507115003 65 46 1.0 2.0 0.01 0.58 0.30 96 1009.5
20260507114504 65 92 0.0 1.0 0.01 0.58 0.30 97 1009.9
20260507113504 65 211 0.0 1.0 0.00 0.58 0.29 96 1010.0
20260507112504 65 119 0.0 1.0 0.00 0.58 0.29 96 1010.0
20260507112003 65 278 0.0 2.0 0.00 0.58 0.29 96 1010.0
20260507111504 65 226 0.0 1.0 0.00 0.58 0.29 96 1010.0
20260507110503 65 222 0.0 1.0 0.00 0.58 0.29 96 1010.0
20260507110004 65 344 0.0 0.0 0.00 0.58 0.29 96 1009.7
20260507105504 65 273 0.0 1.0 0.00 0.58 0.29 96 1009.6
20260507105004 65 175 0.0 1.0 0.00 0.58 0.29 96 1009.6
20260507104504 65 27 0.0 1.0 0.00 0.58 0.29 96 1009.5
20260507104003 65 70 1.0 2.0 0.00 0.58 0.29 96 1009.5
20260507103504 64 354 0.0 1.0 0.00 0.58 0.29 96 1009.6
20260507103004 64 231 0.0 1.0 0.00 0.58 0.29 96 1009.6
20260507102004 64 268 1.0 1.0 0.00 0.58 0.29 96 1009.5
20260507101503 64 87 1.0 1.0 0.00 0.58 0.29 96 1009.5
20260507100004 64 262 0.0 1.0 0.00 0.58 0.29 96 1009.5
20260507095503 64 148 0.0 2.0 0.00 0.58 0.29 96 1009.5
20260507095003 64 329 0.0 1.0 0.00 0.58 0.29 96 1009.5
20260507094004 64 113 0.0 1.0 0.00 0.58 0.29 96 1009.7
20260507093503 64 329 0.0 1.0 0.00 0.58 0.29 96 1009.6
20260507093004 64 132 1.0 1.0 0.00 0.58 0.29 96 1009.6
20260507092503 64 81 0.0 0.0 0.00 0.58 0.29 96 1009.6
20260507092004 64 81 1.0 1.0 0.00 0.58 0.29 96 1009.5
20260507091004 64 196 0.0 2.0 0.00 0.58 0.29 96 1009.5
20260507090503 64 231 0.0 0.0 0.00 0.58 0.29 96 1009.7
20260507090005 64 231 0.0 0.0 0.00 0.58 0.29 96 1009.8
20260507085504 64 231 0.0 1.0 0.00 0.58 0.29 96 1009.8
20260507085003 64 308 0.0 0.0 0.00 0.58 0.29 96 1009.9
20260507084504 64 148 0.0 1.0 0.00 0.58 0.29 96 1009.9
20260507083503 64 50 0.0 1.0 0.00 0.58 0.29 96 1009.9
20260507083004 64 150 1.0 1.0 0.00 0.58 0.29 96 1010.1
20260507082504 64 164 1.0 2.0 0.00 0.58 0.29 96 1010.4
20260507082004 64 296 1.0 2.0 0.00 0.58 0.29 96 1010.4
20260507081504 64 211 1.0 1.0 0.00 0.58 0.29 96 1010.4
20260507081004 64 170 0.0 1.0 0.00 0.58 0.29 96 1010.2
20260507080503 64 167 0.0 1.0 0.00 0.58 0.29 96 1010.1
20260507075503 64 55 0.0 1.0 0.00 0.58 0.29 96 1010.0
20260507075003 64 68 0.0 1.0 0.00 0.58 0.29 96 1010.1
20260507074504 64 43 0.0 1.0 0.00 0.58 0.29 96 1010.3
20260507074004 64 158 0.0 1.0 0.00 0.58 0.29 96 1010.5
20260507073004 64 130 0.0 2.0 0.00 0.58 0.29 96 1010.5
20260507071504 64 311 0.0 0.0 0.04 0.58 0.29 96 1010.7
20260507070504 64 287 0.0 0.0 0.04 0.58 0.29 96 1010.9
20260507070008 64 287 0.0 0.0 0.03 0.58 0.29 96 1010.7
20260507065504 65 287 0.0 0.0 0.03 0.58 0.29 96 1010.5
20260507065004 65 287 0.0 0.0 0.03 0.58 0.29 95 1010.8
20260507064503 65 287 0.0 0.0 0.03 0.58 0.29 95 1011.2
20260507064004 65 183 1.0 1.0 0.03 0.58 0.29 95 1011.3
20260507063003 65 294 0.0 0.0 0.04 0.58 0.29 95 1011.5
20260507062503 65 294 0.0 0.0 0.04 0.58 0.29 95 1011.4
20260507062004 65 294 0.0 0.0 0.09 0.53 0.25 95 1011.2
20260507061504 65 294 0.0 1.0 0.10 0.53 0.25 95 1010.9
20260507060503 65 161 1.0 2.0 0.15 0.53 0.25 95 1011.4
20260507060004 65 206 1.0 2.0 0.17 0.53 0.26 95 1011.4
20260507055503 65 101 0.0 0.0 0.17 0.53 0.26 95 1011.4
20260507055004 65 101 0.0 1.0 0.20 0.53 0.26 95 1011.2
20260507054503 65 143 1.0 2.0 0.22 0.53 0.26 94 1011.4
20260507053004 65 122 1.0 2.0 0.24 0.53 0.26 94 1011.4
20260507052503 65 344 1.0 2.0 0.25 0.52 0.25 94 1011.3
20260507052004 65 134 1.0 2.0 0.16 0.43 0.16 94 1010.9
20260507051503 65 122 1.0 2.0 0.15 0.42 0.15 94 1011.4
20260507051004 66 145 1.0 2.0 0.13 0.40 0.13 94 1011.8
20260507050503 66 157 1.0 2.0 0.10 0.37 0.10 93 1011.4
20260507050003 66 187 1.0 2.0 0.09 0.36 0.09 93 1011.2
20260507045504 66 165 1.0 2.0 0.22 0.36 0.09 93 1010.9
20260507044004 67 102 1.0 3.0 0.17 0.31 0.04 91 1012.6
20260507043504 67 159 1.0 2.0 0.17 0.30 0.03 90 1012.7
20260507042503 68 258 1.0 5.0 0.14 0.28 0.01 88 1013.0
20260507042004 67 268 2.0 5.0 0.15 0.27 0.00 88 1013.0
20260507041503 67 192 2.0 2.0 0.15 0.27 0.00 89 1013.0
20260507041003 67 163 2.0 2.0 0.16 0.27 0.00 92 1012.8
20260507040504 67 278 1.0 1.0 0.16 0.27 0.00 92 1012.5
20260507040004 67 168 1.0 2.0 0.03 0.14 0.00 91 1012.4
20260507035503 67 318 0.0 1.0 0.03 0.14 0.13 91 1012.2
20260507035004 67 241 0.0 0.0 0.03 0.14 0.12 90 1012.0
20260507034503 67 206 0.0 1.0 0.03 0.14 0.12 89 1011.7
20260507034004 67 165 0.0 1.0 0.03 0.14 0.12 88 1011.5
20260507033503 68 253 0.0 2.0 0.02 0.13 0.12 88 1011.5
20260507032504 68 182 1.0 2.0 0.02 0.13 0.12 86 1012.0
20260507032004 68 153 1.0 2.0 0.01 0.12 0.11 85 1012.0
20260507031004 68 182 0.0 2.0 0.00 0.11 0.10 85 1012.0
20260507030503 67 172 0.0 1.0 0.00 0.11 0.10 85 1011.7
20260507030004 67 206 0.0 1.0 0.00 0.11 0.10 86 1011.7
20260507025004 67 280 1.0 1.0 0.00 0.11 0.10 88 1011.5
20260507024004 67 275 0.0 0.0 0.00 0.11 0.10 91 1011.4
20260507023507 66 275 0.0 0.0 0.00 0.11 0.10 92 1011.4
20260507023004 66 160 0.0 1.0 0.00 0.11 0.10 92 1011.3
20260507022504 67 240 0.0 1.0 0.00 0.11 0.10 92 1011.4
20260507022004 67 303 0.0 1.0 0.00 0.11 0.10 92 1011.3
20260507021503 67 278 0.0 1.0 0.00 0.11 0.10 92 1011.1
20260507021004 67 221 0.0 0.0 0.00 0.11 0.10 92 1011.1
20260507020503 67 221 0.0 0.0 0.00 0.11 0.10 92 1011.2
20260507020004 67 221 0.0 0.0 0.00 0.11 0.10 92 1011.3
20260507015504 67 305 0.0 1.0 0.00 0.11 0.10 92 1011.4
20260507015004 67 293 0.0 1.0 0.00 0.11 0.10 92 1011.5
20260507014504 67 310 0.0 1.0 0.00 0.11 0.10 92 1011.5
20260507014003 67 223 0.0 1.0 0.00 0.11 0.10 92 1011.3
20260507013502 67 296 0.0 0.0 0.00 0.11 0.10 91 1011.2
20260507013003 67 296 0.0 1.0 0.00 0.11 0.10 91 1011.4
20260507012503 67 285 0.0 0.0 0.00 0.11 0.10 91 1011.3
20260507011002 67 285 0.0 1.0 0.00 0.11 0.10 90 1011.3
20260507010502 67 291 0.0 0.0 0.00 0.11 0.10 90 1011.2
20260507010002 67 292 0.0 1.0 0.00 0.11 0.10 90 1011.4
20260507005503 67 274 0.0 1.0 0.00 0.11 0.10 89 1011.4
20260507005003 68 267 0.0 1.0 0.00 0.11 0.10 89 1011.3
20260507004004 68 286 0.0 1.0 0.00 0.11 0.10 88 1011.3
20260507003503 68 201 0.0 1.0 0.00 0.11 0.10 87 1011.5
20260507003003 68 266 0.0 0.0 0.00 0.11 0.10 86 1011.5
20260507002502 69 0 0.0 1.0 0.00 0.11 0.10 86 1011.3
20260507002003 69 303 0.0 0.0 0.00 0.11 0.10 85 1011.4
20260507001002 69 53 0.0 1.0 0.00 0.11 0.10 84 1011.2
20260507000504 70 340 0.0 1.0 0.00 0.11 0.10 84 1011.2
20260507000003 70 263 0.0 0.0 0.00 0.11 0.10 82 1011.3
20260506235503 70 258 0.0 1.0 0.00 0.11 0.10 82 1011.3
20260506234503 71 285 0.0 1.0 0.00 0.11 0.10 80 1011.3
20260506234003 71 268 0.0 1.0 0.00 0.11 0.10 80 1011.4
20260506233004 71 51 1.0 2.0 0.00 0.11 0.10 78 1011.3
20260506232502 72 256 0.0 1.0 0.00 0.11 0.10 78 1011.3
20260506232003 72 47 0.0 2.0 0.00 0.11 0.10 76 1011.4
20260506231502 72 248 1.0 1.0 0.00 0.11 0.10 76 1011.5
20260506231005 72 354 0.0 1.0 0.00 0.11 0.10 75 1011.5
20260506230503 73 139 0.0 1.0 0.00 0.11 0.10 75 1011.5
20260506230002 73 7 0.0 3.0 0.00 0.11 0.10 74 1011.4
20260506225503 73 225 0.0 1.0 0.00 0.11 0.10 74 1011.3
20260506225002 73 236 1.0 3.0 0.00 0.11 0.10 73 1011.3
20260506224503 74 237 1.0 3.0 0.00 0.11 0.10 73 1011.4
20260506224003 74 145 0.0 1.0 0.00 0.11 0.10 72 1011.4
20260506223503 74 292 0.0 1.0 0.00 0.11 0.10 73 1011.4
20260506223004 74 296 0.0 1.0 0.00 0.11 0.10 71 1011.1
20260506222503 74 212 1.0 5.0 0.00 0.11 0.10 72 1011.1
20260506222003 74 262 0.0 3.0 0.00 0.11 0.10 72 1011.0
20260506220003 73 281 1.0 3.0 0.00 0.11 0.10 73 1010.9
20260506215503 73 149 1.0 3.0 0.00 0.11 0.10 74 1011.0
20260506214504 73 168 1.0 3.0 0.00 0.11 0.10 75 1011.0
20260506214003 72 247 1.0 3.0 0.00 0.11 0.10 76 1011.2
20260506213003 72 152 1.0 3.0 0.00 0.11 0.10 77 1011.1
20260506212504 72 209 2.0 5.0 0.00 0.11 0.10 77 1011.4
20260506212003 72 172 2.0 6.0 0.00 0.11 0.10 78 1011.2
20260506211506 71 160 2.0 6.0 0.00 0.11 0.10 79 1011.2
20260506211003 71 223 2.0 5.0 0.00 0.11 0.10 80 1011.2
20260506205503 71 219 2.0 3.0 0.00 0.11 0.10 81 1011.1
20260506205003 71 308 0.0 2.0 0.00 0.11 0.10 83 1011.0
20260506204002 69 164 1.0 5.0 0.00 0.11 0.10 85 1010.9
20260506203503 69 258 0.0 3.0 0.00 0.11 0.10 86 1010.9
20260506203003 69 259 1.0 2.0 0.00 0.11 0.10 87 1011.0
20260506202503 69 231 1.0 3.0 0.00 0.11 0.10 87 1011.0
20260506201503 69 229 0.0 5.0 0.01 0.11 0.09 88 1011.3
20260506201003 69 212 2.0 5.0 0.01 0.11 0.09 88 1011.3
20260506200502 68 206 1.0 3.0 0.01 0.11 0.09 88 1011.5
20260506200003 68 257 1.0 3.0 0.02 0.11 0.09 88 1011.6
20260506195503 68 273 1.0 2.0 0.02 0.11 0.09 89 1011.5
20260506195003 67 222 1.0 2.0 0.04 0.11 0.09 91 1011.4
20260506194502 67 237 1.0 3.0 0.06 0.11 0.09 91 1011.5
20260506194003 67 239 1.0 3.0 0.07 0.11 0.09 91 1011.5
20260506193503 67 263 1.0 3.0 0.08 0.11 0.09 91 1011.4
20260506193003 67 139 0.0 2.0 0.08 0.11 0.09 91 1011.5
20260506192502 67 187 1.0 3.0 0.08 0.11 0.09 90 1011.7
20260506191503 67 188 1.0 3.0 0.08 0.10 0.10 89 1012.6
20260506191003 67 156 2.0 5.0 0.08 0.09 0.09 90 1013.0
20260506185503 69 239 0.0 3.0 0.06 0.07 0.07 85 1013.7
20260506184503 72 180 2.0 7.0 0.02 0.03 0.03 74 1013.9
20260506184003 73 161 2.0 5.0 0.01 0.02 0.02 68 1013.6
20260506183503 73 10 1.0 8.0 0.00 0.01 0.01 65 1013.4
20260506183003 74 284 2.0 8.0 0.00 0.01 0.01 65 1013.3
20260506182003 74 207 2.0 7.0 0.00 0.01 0.01 65 1013.4
20260506181003 74 246 2.0 5.0 0.00 0.01 0.01 65 1013.2
20260506180503 74 193 2.0 5.0 0.01 0.01 0.01 65 1013.1
20260506180004 74 236 2.0 3.0 0.01 0.01 0.01 65 1013.3
20260506175502 74 170 2.0 5.0 0.01 0.01 0.01 65 1013.2
20260506175003 73 181 1.0 3.0 0.01 0.01 0.01 67 1013.2
20260506174503 73 234 1.0 3.0 0.01 0.01 0.01 67 1013.2
20260506174003 72 144 1.0 3.0 0.01 0.01 0.01 68 1013.2
20260506173502 72 177 1.0 3.0 0.01 0.01 0.01 67 1013.4
20260506173003 72 156 1.0 5.0 0.01 0.01 0.01 68 1013.5
20260506172503 71 300 0.0 2.0 0.01 0.01 0.01 69 1013.4
20260506172003 71 307 1.0 3.0 0.01 0.01 0.01 70 1013.5
20260506171504 70 347 1.0 3.0 0.01 0.01 0.01 71 1013.7
20260506171003 70 165 2.0 7.0 0.01 0.01 0.01 72 1013.9
20260506170503 70 180 2.0 3.0 0.01 0.01 0.01 71 1014.0
20260506165502 70 41 1.0 2.0 0.01 0.01 0.01 71 1014.0
20260506165003 70 228 0.0 3.0 0.00 0.00 0.00 71 1013.9
20260506164502 70 177 2.0 3.0 0.00 0.00 0.00 71 1014.1
20260506163503 70 160 1.0 3.0 0.00 0.00 0.00 68 1014.1
20260506162003 70 240 1.0 3.0 0.00 0.00 0.00 67 1014.0
20260506161502 70 81 2.0 3.0 0.00 0.00 0.00 66 1014.0
20260506161003 70 117 1.0 2.0 0.00 0.00 0.00 66 1014.1
20260506160503 70 199 1.0 3.0 0.00 0.00 0.00 65 1014.1
20260506160003 70 314 1.0 2.0 0.00 0.00 0.00 68 1014.0
20260506155504 70 242 2.0 3.0 0.00 0.00 0.00 67 1014.0
20260506154503 69 253 1.0 3.0 0.00 0.00 0.00 66 1013.9
20260506153503 69 298 1.0 2.0 0.00 0.00 0.00 66 1014.0
20260506153003 69 189 1.0 2.0 0.00 0.00 0.00 67 1014.0
20260506152504 69 326 0.0 2.0 0.00 0.00 0.00 68 1014.0
20260506152003 69 155 2.0 3.0 0.00 0.00 0.00 68 1013.8
20260506151003 69 152 1.0 2.0 0.00 0.00 0.00 66 1013.8
20260506150503 69 179 1.0 2.0 0.00 0.00 0.00 66 1013.8
20260506145503 69 163 1.0 2.0 0.00 0.00 0.00 67 1013.6
20260506145003 69 185 1.0 3.0 0.00 0.00 0.00 67 1013.5
20260506144503 69 207 3.0 5.0 0.00 0.00 0.00 66 1013.5
20260506144003 69 104 1.0 3.0 0.00 0.00 0.00 66 1013.5
20260506143003 68 125 1.0 3.0 0.00 0.00 0.00 66 1013.6
20260506142502 67 241 2.0 2.0 0.00 0.00 0.00 68 1013.6
20260506141003 67 177 1.0 2.0 0.00 0.00 0.00 69 1014.0
20260506140503 67 213 1.0 2.0 0.00 0.00 0.00 69 1014.0
20260506140003 67 214 1.0 3.0 0.00 0.00 0.00 68 1014.0
20260506135503 66 152 1.0 3.0 0.00 0.00 0.00 69 1014.1
20260506135003 66 154 2.0 2.0 0.00 0.00 0.00 69 1014.0
20260506134502 66 172 1.0 2.0 0.00 0.00 0.00 70 1014.1
20260506134003 66 155 0.0 2.0 0.00 0.00 0.00 70 1014.2
20260506133503 65 174 1.0 2.0 0.00 0.00 0.00 70 1014.2
20260506133003 65 200 1.0 2.0 0.00 0.00 0.00 70 1014.2
20260506131502 65 176 0.0 3.0 0.00 0.00 0.00 72 1014.6
20260506131004 65 157 1.0 2.0 0.00 0.00 0.00 70 1014.6
20260506125503 65 288 2.0 3.0 0.00 0.00 0.00 71 1014.2
20260506125003 65 87 1.0 2.0 0.00 0.00 0.00 71 1014.2
20260506124504 65 174 1.0 3.0 0.00 0.00 0.00 71 1014.1
20260506124003 65 183 3.0 6.0 0.00 0.00 0.00 71 1014.0
20260506123502 65 206 1.0 3.0 0.00 0.00 0.00 72 1013.9
20260506123003 65 246 1.0 5.0 0.00 0.00 0.00 72 1013.8